Flag for Russia Weather past 2 weeks in Surgut, Russia

Now
54 °F

Clear.


Feels Like: 50 °F
Forecast: 40 / 62 °F
Wind: 13 mph from North

Location: Surgut Airport

Current Time: May 24, 2015 at 1:06:18 PM

Latest Report: May 24, 2015 at 12:30 PM


Visibility: 4 mi

Pressure: 29.89 "Hg

Humidity: 51%

Dew point: 36 °F

Location of SurgutLocation

Historic Weather in Surgut — Graph

°F

Surgut temperature yesterday

Maximum temperature yesterday: 55 °F (at 4:00 PM)
Minimum temperature yesterday: 41 °F (at 3:30 AM)
Average temperature yesterday: 48 °F

Past Weeks' High & Low Weather Summary

 TemperatureHumidityPressure
High75 °F (May 15, 12:00 PM)100% (May 20, 1:00 AM)30.21 "Hg (May 20, 1:00 AM)
Low30 °F (May 10, 1:30 AM)20% (May 13, 2:30 PM)29.39 "Hg (May 22, 12:30 AM)
Average54 °F60%29.81 "Hg
* Reported May 9 12:00 Noon — May 24 12:00 Noon, Surgut, Weather by CustomWeather, © 2015

Note: Actual official high and low records may vary slightly from our data, if they occured in-between our weather recording intervals... More about our weather records

Advertising

Surgut weather history for previous 24 hours

 ConditionsComfort  
Time TempWeatherWind HumidityBarometerVisibility
12:00 PM
Sun, May 24
54 °FClear.15 mph47%29.86 "Hg4 mi
11:30 AM54 °FClear.15 mph51%29.86 "Hg4 mi
11:00 AM52 °FClear.13 mph58%29.86 "Hg4 mi
10:30 AM50 °FClear.13 mph58%29.86 "Hg4 mi
10:00 AM50 °FClear.10 mph62%29.86 "Hg4 mi
9:30 AM50 °FClear.8 mph58%29.86 "Hg4 mi
9:00 AM48 °FClear.10 mph62%29.83 "Hg4 mi
8:00 AM46 °FClear.10 mph66%29.83 "Hg4 mi
7:30 AM46 °FClear.10 mph66%29.83 "Hg4 mi
7:00 AM46 °FClear.8 mph66%29.83 "Hg4 mi
6:30 AM46 °FClear.10 mph66%29.80 "Hg4 mi
6:00 AM46 °FClear.10 mph66%29.80 "Hg4 mi
5:30 AM46 °FClear.10 mph66%29.80 "Hg4 mi
5:00 AM46 °FClear.8 mph66%29.80 "Hg4 mi
4:30 AM46 °FClear.8 mph66%29.80 "Hg4 mi
4:00 AM46 °FClear.8 mph66%29.77 "Hg4 mi
3:30 AM46 °FClear.10 mph71%29.77 "Hg4 mi
3:00 AM48 °FClear.10 mph66%29.77 "Hg4 mi
2:30 AM46 °FClear.8 mph71%29.77 "Hg4 mi
2:00 AM46 °FClear.8 mph71%29.74 "Hg4 mi
1:30 AM46 °FClear.8 mph71%29.74 "Hg4 mi
1:00 AM46 °FClear.8 mph71%29.74 "Hg4 mi
12:30 AM46 °FClear.6 mph71%29.74 "Hg4 mi
12:00 AM46 °FClear.8 mph71%29.74 "Hg4 mi
11:30 PM
Sat, May 23
46 °FClear.6 mph71%29.74 "Hg4 mi
11:00 PM46 °FClear.6 mph71%29.74 "Hg4 mi
10:30 PM46 °FClear.6 mph71%29.74 "Hg4 mi
10:00 PM46 °FClear.6 mph71%29.74 "Hg4 mi
9:30 PM46 °FClear.3 mph71%29.74 "Hg4 mi
9:00 PM46 °FClear.3 mph71%29.74 "Hg4 mi
8:30 PM48 °FClear.3 mph66%29.71 "Hg4 mi
8:00 PM50 °FClear.3 mph58%29.71 "Hg4 mi
7:30 PM50 °FClear.10 mph58%29.71 "Hg4 mi
7:00 PM52 °FClear.10 mph50%29.71 "Hg4 mi
6:30 PM54 °FClear.13 mph47%29.71 "Hg4 mi
6:00 PM54 °FClear.13 mph44%29.71 "Hg4 mi
5:30 PM54 °FClear.13 mph47%29.71 "Hg4 mi
5:00 PM54 °FClear.13 mph47%29.71 "Hg4 mi
4:30 PM54 °FClear.15 mph51%29.71 "Hg4 mi
4:00 PM55 °FClear.15 mph44%29.71 "Hg4 mi
3:30 PM54 °FClear.13 mph51%29.71 "Hg4 mi
3:00 PM54 °FClear.15 mph47%29.71 "Hg4 mi
2:30 PM54 °FClear.15 mph47%29.71 "Hg4 mi
2:00 PM54 °FClear.15 mph44%29.71 "Hg4 mi
1:30 PM52 °FClear.15 mph50%29.71 "Hg4 mi
1:00 PM54 °FClear.15 mph51%29.71 "Hg4 mi
Weather by CustomWeather, © 2015

See weather overviewHow to use our weather pages